Flag Weather past 2 weeks in Owen Sound, Ontario, Canada

Now
39 °F

Passing clouds.


Feels Like: 39 °F
Forecast: 39 / 45 °F
Wind: 2 mph from Northwest

Location: Wiarton

Current Time: Oct 30, 2014 at 9:04:09 AM

Latest Report: Oct 30, 2014 at 8:00 AM


Visibility: 15 mi

Pressure: 30.07 "Hg

Humidity: 87%

Dew point: 36 °F

Location of Owen SoundLocation

Historic Weather in Owen Sound — Graph

°F

Owen Sound temperature yesterday

Maximum temperature yesterday: 52 °F (at 12:00 AM)
Minimum temperature yesterday: 43 °F (at 4:00 PM)
Average temperature yesterday: 46 °F

Past Weeks' High & Low Weather Summary

 TemperatureHumidityPressure
High63 °F (Oct 15, 3:00 PM)100% (Oct 15, 7:00 AM)30.36 "Hg (Oct 15, 7:00 AM)
Low30 °F (Oct 23, 4:00 AM)55% (Oct 23, 4:00 PM)29.42 "Hg (Oct 17, 8:00 PM)
Average47 °F85%29.88 "Hg
* Reported Oct 15 7:00 AM — Oct 30 7:00 AM, Owen Sound, Weather by CustomWeather, © 2014

Note: Actual official high and low records may vary slightly from our data, if they occured in-between our weather recording intervals... More about our weather records

Advertising

Owen Sound weather history for previous 24 hours

 ConditionsComfort  
Time TempWeatherWind HumidityBarometerVisibility
7:00 AM
Oct 30
39 °FPassing clouds.3 mph87%30.07 "Hg15 mi
6:00 AM39 °FPassing clouds.6 mph87%30.06 "Hg15 mi
5:00 AM39 °FPassing clouds.2 mph87%30.05 "Hg15 mi
4:00 AM41 °FOvercast.5 mph81%30.03 "Hg15 mi
3:00 AM41 °FPassing clouds.6 mph81%30.03 "Hg15 mi
2:00 AM41 °FPassing clouds.5 mph81%30.02 "Hg15 mi
1:00 AM41 °FPassing clouds.5 mph81%30.01 "Hg15 mi
12:00 AM41 °FPassing clouds.7 mph81%30.01 "Hg15 mi
11:00 PM
Oct 29
43 °FPassing clouds.8 mph76%30.00 "Hg15 mi
10:00 PM45 °FOvercast.6 mph71%29.99 "Hg15 mi
9:00 PM45 °FOvercast.6 mph71%29.97 "Hg15 mi
8:00 PM45 °FOvercast.10 mph76%29.95 "Hg15 mi
7:00 PM43 °FScattered showers. Partly sunny.10 mph87%29.93 "Hg15 mi
6:00 PM43 °FScattered showers. Partly sunny.15 mph87%29.91 "Hg12 mi
5:00 PM45 °FPartly sunny.13 mph76%29.89 "Hg15 mi
4:00 PM43 °FOvercast.12 mph87%29.87 "Hg12 mi
3:00 PM46 °FScattered showers. Partly sunny.16 mph76%29.85 "Hg15 mi
2:00 PM46 °FOvercast.14 mph76%29.85 "Hg12 mi
1:00 PM46 °FOvercast.15 mph76%29.84 "Hg15 mi
12:00 PM48 °FOvercast.13 mph76%29.83 "Hg15 mi
11:00 AM48 °FScattered showers. Overcast.20 mph71%29.82 "Hg15 mi
10:00 AM48 °FSprinkles. Overcast.15 mph76%29.81 "Hg15 mi
9:00 AM48 °FMostly cloudy.14 mph76%29.80 "Hg15 mi
Weather by CustomWeather, © 2014

See weather overviewHow to use our weather pages